Location: Acts Church of Fort Worth
(32.6786°N, 97.2668°W)
Time: 08:48:55
(UTC+00:00)

Resurs 01 Rocket - Pass Details

Date: 18 January 2026
Orbit: 627 x 635 km, 97.7° (Epoch: 10 February)

Event Time Altitude Azimuth Distance (km) Brightness Sun altitude
Rises 01:20:16 0° 157° (SSE) 2,899 4.9 -19.2°
Reaches altitude 10° 01:22:29 10° 153° (SSE) 1,995 4.0 -19.7°
Maximum altitude 01:26:44 56° 76° (ENE) 745 1.5 -20.6°
Drops below altitude 10° 01:31:01 10° 358° (N) 2,007 4.1 -21.5°
Sets 01:33:14 0° 354° (N) 2,918 5.0 -21.9°
